Time,TemperatureF,DewpointF,PressureIn,WindDirection,WindDirectionDegrees,WindSpeedMPH,WindSpeedGustMPH,Humidity,HourlyPrecipIn,Conditions,Clouds,dailyrainin,SoftwareType,DateUTC
2013-03-07 00:00:00,38.6,29.3,30.01,NNW,327,5.0,12.0,69,0.00,,,0.01,VWS V14.01,2013-03-07 05:00:00,
2013-03-07 00:05:00,38.5,29.6,30.01,NW,311,7.0,9.0,70,0.00,,,0.00,VWS V14.01,2013-03-07 05:05:00,
2013-03-07 00:10:00,38.4,29.5,30.01,NW,312,7.0,9.0,70,0.00,,,0.00,VWS V14.01,2013-03-07 05:10:00,
2013-03-07 00:15:00,38.4,29.5,30.01,NNW,338,6.0,9.0,70,0.00,,,0.00,VWS V14.01,2013-03-07 05:15:00,
2013-03-07 00:20:00,38.3,29.4,30.01,NNW,332,4.0,9.0,70,0.00,,,0.00,VWS V14.01,2013-03-07 05:20:00,
2013-03-07 00:25:00,38.3,29.4,30.01,NNW,335,4.0,9.0,70,0.00,,,0.00,VWS V14.01,2013-03-07 05:25:00,
2013-03-07 00:30:00,38.2,29.6,30.02,NW,316,6.0,9.0,71,0.00,,,0.00,VWS V14.01,2013-03-07 05:30:00,
2013-03-07 00:35:00,38.1,29.5,30.02,NW,305,4.0,10.0,71,0.00,,,0.00,VWS V14.01,2013-03-07 05:35:00,
2013-03-07 00:40:00,38.0,29.5,30.01,NW,319,4.0,10.0,71,0.00,,,0.00,VWS V14.01,2013-03-07 05:40:00,
2013-03-07 00:45:00,37.8,29.6,30.02,NW,323,5.0,10.0,72,0.00,,,0.00,VWS V14.01,2013-03-07 05:45:00,
2013-03-07 00:50:00,37.5,29.3,30.02,NW,311,5.0,10.0,72,0.00,,,0.00,VWS V14.01,2013-03-07 05:50:00,
2013-03-07 00:55:00,37.4,29.2,30.02,WNW,296,4.0,10.0,72,0.00,,,0.00,VWS V14.01,2013-03-07 05:55:00,
2013-03-07 01:00:00,37.3,29.5,30.03,NW,311,4.0,10.0,73,0.00,,,0.00,VWS V14.01,2013-03-07 06:00:00,
2013-03-07 01:05:00,37.3,29.1,30.03,NW,312,7.0,11.0,72,0.00,,,0.00,VWS V14.01,2013-03-07 06:05:00,
2013-03-07 01:10:00,37.2,29.4,30.03,NW,323,5.0,11.0,73,0.00,,,0.00,VWS V14.01,2013-03-07 06:10:00,
2013-03-07 01:15:00,37.2,29.4,30.03,NW,315,5.0,11.0,73,0.00,,,0.00,VWS V14.01,2013-03-07 06:15:00,
2013-03-07 01:20:00,37.1,29.3,30.03,NW,307,11.0,12.0,73,0.00,,,0.00,VWS V14.01,2013-03-07 06:20:00,
2013-03-07 01:25:00,37.1,29.3,30.03,NW,310,6.0,12.0,73,0.00,,,0.00,VWS V14.01,2013-03-07 06:25:00,
2013-03-07 01:30:00,37.0,29.2,30.03,NW,313,9.0,12.0,73,0.00,,,0.00,VWS V14.01,2013-03-07 06:30:00,
2013-03-07 01:35:00,37.0,29.2,30.04,NW,309,6.0,7.0,73,0.00,,,0.00,VWS V14.01,2013-03-07 06:35:00,
2013-03-07 01:40:00,36.9,29.1,30.04,WNW,291,5.0,7.0,73,0.00,,,0.00,VWS V14.01,2013-03-07 06:40:00,
2013-03-07 01:45:00,36.9,29.1,30.04,NW,323,7.0,9.0,73,0.00,,,0.00,VWS V14.01,2013-03-07 06:45:00,
2013-03-07 01:50:00,36.9,29.1,30.04,NW,321,4.0,10.0,73,0.00,,,0.00,VWS V14.01,2013-03-07 06:50:00,
2013-03-07 01:55:00,36.9,29.1,30.04,NW,313,4.0,10.0,73,0.00,,,0.00,VWS V14.01,2013-03-07 06:55:00,
2013-03-07 02:00:00,36.8,29.0,30.04,NW,313,8.0,10.0,73,0.00,,,0.00,VWS V14.01,2013-03-07 07:00:00,
2013-03-07 02:05:00,36.8,29.0,30.04,NW,323,6.0,7.0,73,0.00,,,0.00,VWS V14.01,2013-03-07 07:05:00,
2013-03-07 02:10:00,36.7,29.2,30.04,NW,312,5.0,7.0,74,0.00,,,0.00,VWS V14.01,2013-03-07 07:10:00,
2013-03-07 02:15:00,36.6,29.1,30.04,NW,304,5.0,7.0,74,0.00,,,0.00,VWS V14.01,2013-03-07 07:15:00,
2013-03-07 02:20:00,36.6,29.1,30.04,NW,315,6.0,7.0,74,0.00,,,0.00,VWS V14.01,2013-03-07 07:20:00,
2013-03-07 02:25:00,36.5,29.0,30.05,NW,304,4.0,8.0,74,0.00,,,0.00,VWS V14.01,2013-03-07 07:25:00,
2013-03-07 02:30:00,36.4,28.9,30.05,WNW,299,5.0,8.0,74,0.00,,,0.00,VWS V14.01,2013-03-07 07:30:00,
2013-03-07 02:35:00,36.2,29.0,30.05,NW,317,5.0,7.0,75,0.00,,,0.00,VWS V14.01,2013-03-07 07:35:00,
2013-03-07 02:40:00,36.2,29.0,30.04,NW,317,5.0,7.0,75,0.00,,,0.00,VWS V14.01,2013-03-07 07:40:00,
2013-03-07 02:45:00,36.1,29.0,30.05,NW,307,5.0,7.0,75,0.00,,,0.00,VWS V14.01,2013-03-07 07:45:00,
2013-03-07 02:50:00,36.1,29.0,30.04,NW,311,5.0,7.0,75,0.00,,,0.00,VWS V14.01,2013-03-07 07:50:00,
2013-03-07 02:55:00,36.0,29.2,30.04,NNW,329,6.0,7.0,76,0.00,,,0.00,VWS V14.01,2013-03-07 07:55:00,
2013-03-07 03:00:00,36.0,29.2,30.04,NNW,329,4.0,7.0,76,0.00,,,0.00,VWS V14.01,2013-03-07 08:00:00,
2013-03-07 03:05:00,35.9,29.1,30.04,NW,321,4.0,5.0,76,0.00,,,0.00,VWS V14.01,2013-03-07 08:05:00,
2013-03-07 03:10:00,35.9,29.1,30.04,WNW,298,4.0,5.0,76,0.00,,,0.00,VWS V14.01,2013-03-07 08:10:00,
2013-03-07 03:15:00,35.8,29.0,30.04,WNW,284,2.0,6.0,76,0.00,,,0.00,VWS V14.01,2013-03-07 08:15:00,
2013-03-07 03:20:00,35.6,29.1,30.04,WNW,298,2.0,6.0,77,0.00,,,0.00,VWS V14.01,2013-03-07 08:20:00,
2013-03-07 03:25:00,35.4,28.9,30.04,WNW,287,1.0,6.0,77,0.00,,,0.00,VWS V14.01,2013-03-07 08:25:00,
2013-03-07 03:30:00,35.2,29.0,30.04,WNW,289,1.0,6.0,78,0.00,,,0.00,VWS V14.01,2013-03-07 08:30:00,
2013-03-07 03:35:00,35.1,28.9,30.04,West,281,1.0,3.0,78,0.00,,,0.00,VWS V14.01,2013-03-07 08:35:00,
2013-03-07 03:40:00,35.0,28.9,30.04,WNW,288,1.0,3.0,78,0.00,,,0.00,VWS V14.01,2013-03-07 08:40:00,
2013-03-07 03:45:00,34.9,28.8,30.05,WNW,294,1.0,3.0,78,0.00,,,0.00,VWS V14.01,2013-03-07 08:45:00,
2013-03-07 03:50:00,35.1,28.9,30.04,NNW,331,3.0,5.0,78,0.00,,,0.00,VWS V14.01,2013-03-07 08:50:00,
2013-03-07 03:55:00,35.3,28.8,30.04,NW,311,2.0,5.0,77,0.00,,,0.00,VWS V14.01,2013-03-07 08:55:00,
2013-03-07 04:00:00,35.4,28.9,30.04,NW,313,2.0,5.0,77,0.00,,,0.00,VWS V14.01,2013-03-07 09:00:00,
2013-03-07 04:05:00,35.4,28.9,30.04,WNW,292,2.0,3.0,77,0.00,,,0.00,VWS V14.01,2013-03-07 09:05:00,
2013-03-07 04:10:00,35.4,28.9,30.05,WNW,288,1.0,3.0,77,0.00,,,0.00,VWS V14.01,2013-03-07 09:10:00,
2013-03-07 04:15:00,35.5,29.0,30.05,WNW,299,2.0,4.0,77,0.00,,,0.00,VWS V14.01,2013-03-07 09:15:00,
2013-03-07 04:20:00,35.6,29.1,30.05,NW,313,3.0,4.0,77,0.00,,,0.00,VWS V14.01,2013-03-07 09:20:00,
2013-03-07 04:25:00,35.7,29.2,30.05,NW,317,2.0,4.0,77,0.00,,,0.00,VWS V14.01,2013-03-07 09:25:00,
2013-03-07 04:30:00,35.7,29.2,30.06,WNW,301,2.0,5.0,77,0.00,,,0.00,VWS V14.01,2013-03-07 09:30:00,
2013-03-07 04:35:00,35.6,29.1,30.06,NW,311,3.0,4.0,77,0.00,,,0.00,VWS V14.01,2013-03-07 09:35:00,
2013-03-07 04:40:00,35.7,29.2,30.06,WNW,292,3.0,5.0,77,0.00,,,0.00,VWS V14.01,2013-03-07 09:40:00,
2013-03-07 04:45:00,35.6,29.1,30.06,WNW,293,5.0,8.0,77,0.00,,,0.00,VWS V14.01,2013-03-07 09:45:00,
2013-03-07 04:50:00,35.8,29.3,30.07,WNW,284,2.0,8.0,77,0.00,,,0.00,VWS V14.01,2013-03-07 09:50:00,
2013-03-07 04:55:00,35.8,29.3,30.07,WNW,298,2.0,8.0,77,0.00,,,0.00,VWS V14.01,2013-03-07 09:55:00,
2013-03-07 05:00:00,35.8,29.3,30.07,NW,312,3.0,8.0,77,0.00,,,0.00,VWS V14.01,2013-03-07 10:00:00,
2013-03-07 05:05:00,35.9,29.4,30.07,NW,321,4.0,5.0,77,0.00,,,0.00,VWS V14.01,2013-03-07 10:05:00,
2013-03-07 05:10:00,36.0,29.5,30.07,NW,310,4.0,6.0,77,0.00,,,0.00,VWS V14.01,2013-03-07 10:10:00,
2013-03-07 05:15:00,36.0,29.5,30.07,NW,313,4.0,6.0,77,0.00,,,0.00,VWS V14.01,2013-03-07 10:15:00,
2013-03-07 05:20:00,36.0,29.5,30.07,NW,317,3.0,7.0,77,0.00,,,0.00,VWS V14.01,2013-03-07 10:20:00,
2013-03-07 05:25:00,36.0,29.5,30.08,WNW,296,3.0,7.0,77,0.00,,,0.00,VWS V14.01,2013-03-07 10:25:00,
2013-03-07 05:30:00,35.9,29.4,30.08,WNW,282,2.0,7.0,77,0.00,,,0.00,VWS V14.01,2013-03-07 10:30:00,
2013-03-07 05:35:00,35.8,29.3,30.08,NW,309,2.0,6.0,77,0.00,,,0.00,VWS V14.01,2013-03-07 10:35:00,
2013-03-07 05:40:00,35.8,29.3,30.08,WNW,294,1.0,6.0,77,0.00,,,0.00,VWS V14.01,2013-03-07 10:40:00,
2013-03-07 05:45:00,35.6,29.1,30.08,WNW,284,1.0,6.0,77,0.00,,,0.00,VWS V14.01,2013-03-07 10:45:00,
2013-03-07 05:50:00,35.4,28.9,30.09,West,272,0.0,6.0,77,0.00,,,0.00,VWS V14.01,2013-03-07 10:50:00,
2013-03-07 05:55:00,34.8,29.0,30.09,West,265,1.0,6.0,79,0.00,,,0.00,VWS V14.01,2013-03-07 10:55:00,
2013-03-07 06:00:00,34.4,28.9,30.09,West,275,0.0,6.0,80,0.00,,,0.00,VWS V14.01,2013-03-07 11:00:00,
2013-03-07 06:05:00,34.5,29.0,30.09,WNW,298,2.0,3.0,80,0.00,,,0.00,VWS V14.01,2013-03-07 11:05:00,
2013-03-07 06:10:00,34.7,28.9,30.10,WNW,302,1.0,3.0,79,0.00,,,0.00,VWS V14.01,2013-03-07 11:10:00,
2013-03-07 06:15:00,34.7,28.9,30.10,WNW,290,0.0,3.0,79,0.00,,,0.00,VWS V14.01,2013-03-07 11:15:00,
2013-03-07 06:20:00,34.5,29.0,30.11,WNW,292,2.0,3.0,80,0.00,,,0.00,VWS V14.01,2013-03-07 11:20:00,
2013-03-07 06:25:00,34.4,28.9,30.11,West,276,1.0,3.0,80,0.00,,,0.00,VWS V14.01,2013-03-07 11:25:00,
2013-03-07 06:30:00,34.4,28.9,30.11,West,281,0.0,3.0,80,0.00,,,0.00,VWS V14.01,2013-03-07 11:30:00,
2013-03-07 06:35:00,34.3,28.8,30.11,WNW,295,1.0,2.0,80,0.00,,,0.00,VWS V14.01,2013-03-07 11:35:00,
2013-03-07 06:40:00,34.3,28.8,30.11,NW,323,2.0,3.0,80,0.00,,,0.00,VWS V14.01,2013-03-07 11:40:00,
2013-03-07 06:45:00,34.3,28.8,30.11,NW,318,3.0,6.0,80,0.00,,,0.00,VWS V14.01,2013-03-07 11:45:00,
2013-03-07 06:50:00,34.5,29.0,30.11,NW,311,2.0,6.0,80,0.00,,,0.00,VWS V14.01,2013-03-07 11:50:00,
2013-03-07 06:55:00,34.6,29.1,30.12,NW,304,2.0,6.0,80,0.00,,,0.00,VWS V14.01,2013-03-07 11:55:00,
2013-03-07 07:00:00,34.7,28.9,30.12,WNW,291,4.0,6.0,79,0.00,,,0.00,VWS V14.01,2013-03-07 12:00:00,
2013-03-07 07:05:00,35.0,29.2,30.12,WNW,298,2.0,3.0,79,0.00,,,0.00,VWS V14.01,2013-03-07 12:05:00,
2013-03-07 07:10:00,35.2,29.4,30.13,WSW,242,1.0,3.0,79,0.00,,,0.00,VWS V14.01,2013-03-07 12:10:00,
2013-03-07 07:15:00,35.3,29.1,30.13,WNW,289,2.0,5.0,78,0.00,,,0.00,VWS V14.01,2013-03-07 12:15:00,
2013-03-07 07:20:00,35.4,29.2,30.13,NW,325,2.0,5.0,78,0.00,,,0.00,VWS V14.01,2013-03-07 12:20:00,
2013-03-07 07:25:00,35.6,29.4,30.14,NW,321,3.0,5.0,78,0.00,,,0.00,VWS V14.01,2013-03-07 12:25:00,
2013-03-07 07:31:00,35.8,29.6,30.14,NNW,333,3.0,5.0,78,0.00,,,0.00,VWS V14.01,2013-03-07 12:31:00,
2013-03-07 07:36:00,36.2,29.7,30.14,NW,314,4.0,4.0,77,0.00,,,0.00,VWS V14.01,2013-03-07 12:36:00,
2013-03-07 07:41:00,36.5,29.7,30.14,WNW,284,2.0,5.0,76,0.00,,,0.00,VWS V14.01,2013-03-07 12:41:00,
2013-03-07 07:46:00,36.9,30.0,30.15,WNW,292,1.0,5.0,76,0.00,,,0.00,VWS V14.01,2013-03-07 12:46:00,
2013-03-07 07:51:00,37.3,30.1,30.15,NW,314,5.0,7.0,75,0.00,,,0.00,VWS V14.01,2013-03-07 12:51:00,
2013-03-07 07:57:00,37.7,30.2,30.15,WNW,295,5.0,7.0,74,0.00,,,0.00,VWS V14.01,2013-03-07 12:57:00,
2013-03-07 08:02:00,38.1,30.6,30.15,West,281,2.0,5.0,74,0.00,,,0.00,VWS V14.01,2013-03-07 13:02:00,
2013-03-07 08:07:00,38.4,30.5,30.16,NW,319,5.0,8.0,73,0.00,,,0.00,VWS V14.01,2013-03-07 13:07:00,
2013-03-07 08:12:00,38.8,30.6,30.16,NW,310,3.0,8.0,72,0.00,,,0.00,VWS V14.01,2013-03-07 13:12:00,
2013-03-07 08:17:00,39.2,30.6,30.16,NW,304,4.0,10.0,71,0.00,,,0.00,VWS V14.01,2013-03-07 13:17:00,
2013-03-07 08:22:00,39.4,30.8,30.16,WNW,293,5.0,10.0,71,0.00,,,0.00,VWS V14.01,2013-03-07 13:22:00,
2013-03-07 08:27:00,39.8,30.8,30.16,WNW,297,6.0,10.0,70,0.00,,,0.00,VWS V14.01,2013-03-07 13:27:00,
2013-03-07 08:32:00,40.2,30.9,30.16,NW,311,4.0,6.0,69,0.00,,,0.00,VWS V14.01,2013-03-07 13:32:00,
2013-03-07 08:37:00,40.5,30.8,30.16,WNW,298,7.0,12.0,68,0.00,,,0.00,VWS V14.01,2013-03-07 13:37:00,
2013-03-07 08:42:00,40.9,31.2,30.16,NW,306,4.0,12.0,68,0.00,,,0.00,VWS V14.01,2013-03-07 13:42:00,
2013-03-07 08:47:00,41.4,31.3,30.16,NW,311,7.0,12.0,67,0.00,,,0.00,VWS V14.01,2013-03-07 13:47:00,
2013-03-07 08:52:00,42.0,31.1,30.16,NNW,336,7.0,12.0,65,0.00,,,0.00,VWS V14.01,2013-03-07 13:52:00,
2013-03-07 08:57:00,42.3,31.0,30.16,NNW,329,6.0,15.0,64,0.00,,,0.00,VWS V14.01,2013-03-07 13:57:00,
2013-03-07 09:02:00,42.6,30.9,30.16,NNE,17,3.0,6.0,63,0.00,,,0.00,VWS V14.01,2013-03-07 14:02:00,
2013-03-07 09:07:00,42.9,30.8,30.16,NW,306,7.0,13.0,62,0.00,,,0.00,VWS V14.01,2013-03-07 14:07:00,
2013-03-07 09:12:00,42.9,30.8,30.16,NE,41,6.0,13.0,62,0.00,,,0.00,VWS V14.01,2013-03-07 14:12:00,
2013-03-07 09:17:00,42.9,30.8,30.16,NW,315,12.0,17.0,62,0.00,,,0.00,VWS V14.01,2013-03-07 14:17:00,
2013-03-07 09:22:00,43.1,31.0,30.16,WNW,296,5.0,17.0,62,0.00,,,0.00,VWS V14.01,2013-03-07 14:22:00,
2013-03-07 09:27:00,43.7,31.1,30.17,NNW,338,7.0,17.0,61,0.00,,,0.00,VWS V14.01,2013-03-07 14:27:00,
2013-03-07 09:32:00,44.0,31.4,30.17,NE,39,4.0,8.0,61,0.00,,,0.00,VWS V14.01,2013-03-07 14:32:00,
2013-03-07 09:37:00,44.3,30.9,30.16,NW,311,4.0,11.0,59,0.00,,,0.00,VWS V14.01,2013-03-07 14:37:00,
2013-03-07 09:42:00,44.1,30.7,30.16,NW,311,7.0,17.0,59,0.00,,,0.00,VWS V14.01,2013-03-07 14:42:00,
2013-03-07 09:47:00,44.0,31.0,30.16,NNW,331,5.0,17.0,60,0.00,,,0.00,VWS V14.01,2013-03-07 14:47:00,
2013-03-07 09:52:00,44.6,31.2,30.16,NW,315,8.0,17.0,59,0.00,,,0.00,VWS V14.01,2013-03-07 14:52:00,
2013-03-07 09:57:00,44.9,31.0,30.16,NW,315,6.0,17.0,58,0.00,,,0.00,VWS V14.01,2013-03-07 14:57:00,
2013-03-07 10:02:00,45.3,31.4,30.16,NNW,342,3.0,3.0,58,0.00,,,0.00,VWS V14.01,2013-03-07 15:02:00,
2013-03-07 10:07:00,45.3,30.5,30.15,NNW,341,7.0,17.0,56,0.00,,,0.00,VWS V14.01,2013-03-07 15:07:00,
2013-03-07 10:12:00,45.5,30.7,30.16,NE,39,7.0,17.0,56,0.00,,,0.00,VWS V14.01,2013-03-07 15:12:00,
2013-03-07 10:17:00,45.8,30.1,30.16,NW,309,11.0,17.0,54,0.00,,,0.00,VWS V14.01,2013-03-07 15:17:00,
2013-03-07 10:22:00,45.7,30.0,30.16,NW,312,11.0,17.0,54,0.00,,,0.00,VWS V14.01,2013-03-07 15:22:00,
2013-03-07 10:27:00,46.0,30.8,30.16,NNW,340,7.0,17.0,55,0.00,,,0.00,VWS V14.01,2013-03-07 15:27:00,
2013-03-07 10:32:00,46.1,30.9,30.16,NW,323,8.0,11.0,55,0.00,,,0.00,VWS V14.01,2013-03-07 15:32:00,
2013-03-07 10:37:00,46.5,31.2,30.16,NNE,30,5.0,12.0,55,0.00,,,0.00,VWS V14.01,2013-03-07 15:37:00,
2013-03-07 10:42:00,46.5,30.3,30.16,NNW,341,4.0,12.0,53,0.00,,,0.00,VWS V14.01,2013-03-07 15:42:00,
2013-03-07 10:47:00,46.8,31.0,30.16,NNE,19,4.0,12.0,54,0.00,,,0.00,VWS V14.01,2013-03-07 15:47:00,
2013-03-07 10:52:00,46.7,30.5,30.16,NNW,329,4.0,14.0,53,0.00,,,0.00,VWS V14.01,2013-03-07 15:52:00,
2013-03-07 10:57:00,46.5,30.3,30.16,NE,53,11.0,16.0,53,0.00,,,0.00,VWS V14.01,2013-03-07 15:57:00,
2013-03-07 11:02:00,46.8,30.6,30.15,NE,36,5.0,8.0,53,0.00,,,0.00,VWS V14.01,2013-03-07 16:02:00,
2013-03-07 11:07:00,47.2,30.5,30.15,NNW,347,7.0,10.0,52,0.00,,,0.00,VWS V14.01,2013-03-07 16:07:00,
2013-03-07 11:12:00,47.6,30.9,30.15,WNW,288,7.0,11.0,52,0.00,,,0.00,VWS V14.01,2013-03-07 16:12:00,
2013-03-07 11:17:00,47.0,30.3,30.15,NW,317,8.0,14.0,52,0.00,,,0.00,VWS V14.01,2013-03-07 16:17:00,
2013-03-07 11:22:00,47.1,30.4,30.15,WSW,247,3.0,14.0,52,0.00,,,0.00,VWS V14.01,2013-03-07 16:22:00,
2013-03-07 11:27:00,47.3,30.1,30.15,NW,313,12.0,15.0,51,0.00,,,0.00,VWS V14.01,2013-03-07 16:27:00,
2013-03-07 11:32:00,47.3,31.0,30.15,NW,305,8.0,10.0,53,0.00,,,0.00,VWS V14.01,2013-03-07 16:32:00,
2013-03-07 11:37:00,47.5,30.8,30.15,WNW,296,5.0,10.0,52,0.00,,,0.00,VWS V14.01,2013-03-07 16:37:00,
2013-03-07 11:42:00,47.7,30.5,30.14,NW,311,11.0,14.0,51,0.00,,,0.00,VWS V14.01,2013-03-07 16:42:00,
2013-03-07 11:47:00,47.6,30.4,30.15,North,10,8.0,14.0,51,0.00,,,0.00,VWS V14.01,2013-03-07 16:47:00,
2013-03-07 11:52:00,47.4,30.2,30.15,NNW,336,9.0,14.0,51,0.00,,,0.00,VWS V14.01,2013-03-07 16:52:00,
2013-03-07 11:57:00,47.7,30.0,30.14,NW,309,7.0,16.0,50,0.00,,,0.00,VWS V14.01,2013-03-07 16:57:00,
2013-03-07 12:02:00,47.7,30.5,30.14,NW,324,11.0,11.0,51,0.00,,,0.00,VWS V14.01,2013-03-07 17:02:00,
2013-03-07 12:07:00,48.3,31.0,30.14,NW,305,9.0,12.0,51,0.00,,,0.00,VWS V14.01,2013-03-07 17:07:00,
2013-03-07 12:12:00,48.7,30.9,30.14,NNW,328,5.0,13.0,50,0.00,,,0.00,VWS V14.01,2013-03-07 17:12:00,
2013-03-07 12:17:00,48.8,30.5,30.14,NW,306,11.0,13.0,49,0.00,,,0.00,VWS V14.01,2013-03-07 17:17:00,
2013-03-07 12:22:00,49.0,31.2,30.14,WNW,298,11.0,13.0,50,0.00,,,0.00,VWS V14.01,2013-03-07 17:22:00,
2013-03-07 12:27:00,48.4,31.1,30.14,NNW,330,10.0,15.0,51,0.00,,,0.00,VWS V14.01,2013-03-07 17:27:00,
2013-03-07 12:32:00,48.4,31.1,30.14,NW,317,8.0,9.0,51,0.00,,,0.00,VWS V14.01,2013-03-07 17:32:00,
2013-03-07 12:37:00,48.2,30.9,30.13,NNE,29,6.0,13.0,51,0.00,,,0.00,VWS V14.01,2013-03-07 17:37:00,
2013-03-07 12:42:00,48.0,30.8,30.13,NNW,328,5.0,13.0,51,0.00,,,0.00,VWS V14.01,2013-03-07 17:42:00,
2013-03-07 12:47:00,48.1,30.4,30.13,NNW,340,9.0,13.0,50,0.00,,,0.00,VWS V14.01,2013-03-07 17:47:00,
2013-03-07 12:52:00,48.4,30.1,30.12,NW,310,7.0,13.0,49,0.00,,,0.00,VWS V14.01,2013-03-07 17:52:00,
2013-03-07 12:57:00,48.8,31.0,30.12,WNW,299,8.0,13.0,50,0.00,,,0.00,VWS V14.01,2013-03-07 17:57:00,
2013-03-07 13:02:00,49.2,30.4,30.12,NNW,334,8.0,8.0,48,0.00,,,0.00,VWS V14.01,2013-03-07 18:02:00,
2013-03-07 13:07:00,48.8,30.5,30.12,NW,304,5.0,18.0,49,0.00,,,0.00,VWS V14.01,2013-03-07 18:07:00,
2013-03-07 13:13:00,49.0,30.7,30.12,NE,47,5.0,18.0,49,0.00,,,0.00,VWS V14.01,2013-03-07 18:13:00,
2013-03-07 13:18:00,48.9,30.6,30.12,NNW,330,8.0,18.0,49,0.00,,,0.00,VWS V14.01,2013-03-07 18:18:00,
2013-03-07 13:23:00,48.7,30.9,30.11,NNE,24,2.0,18.0,50,0.00,,,0.00,VWS V14.01,2013-03-07 18:23:00,
2013-03-07 13:28:00,48.9,30.6,30.12,WNW,289,7.0,18.0,49,0.00,,,0.00,VWS V14.01,2013-03-07 18:28:00,
2013-03-07 13:33:00,49.1,31.3,30.11,NNE,16,10.0,11.0,50,0.00,,,0.00,VWS V14.01,2013-03-07 18:33:00,
2013-03-07 13:38:00,48.7,30.4,30.11,NNW,331,7.0,15.0,49,0.00,,,0.00,VWS V14.01,2013-03-07 18:38:00,
2013-03-07 13:43:00,48.5,30.7,30.11,NNW,333,5.0,15.0,50,0.00,,,0.00,VWS V14.01,2013-03-07 18:43:00,
2013-03-07 13:48:00,48.3,30.5,30.11,NW,313,6.0,15.0,50,0.00,,,0.00,VWS V14.01,2013-03-07 18:48:00,
2013-03-07 13:53:00,48.6,30.8,30.11,NNW,335,6.0,15.0,50,0.00,,,0.00,VWS V14.01,2013-03-07 18:53:00,
2013-03-07 13:58:00,49.4,30.5,30.11,NW,322,6.0,15.0,48,0.00,,,0.00,VWS V14.01,2013-03-07 18:58:00,
2013-03-07 14:03:00,49.2,30.4,30.10,NW,313,10.0,15.0,48,0.00,,,0.00,VWS V14.01,2013-03-07 19:03:00,
2013-03-07 14:08:00,49.2,30.9,30.11,NNE,32,6.0,15.0,49,0.00,,,0.00,VWS V14.01,2013-03-07 19:08:00,
2013-03-07 14:13:00,49.6,30.7,30.10,NNW,333,10.0,15.0,48,0.00,,,0.00,VWS V14.01,2013-03-07 19:13:00,
2013-03-07 14:18:00,49.2,29.9,30.11,NW,325,10.0,16.0,47,0.00,,,0.00,VWS V14.01,2013-03-07 19:18:00,
2013-03-07 14:23:00,49.1,30.3,30.10,NNW,348,5.0,16.0,48,0.00,,,0.00,VWS V14.01,2013-03-07 19:23:00,
2013-03-07 14:28:00,49.5,31.1,30.10,NE,56,1.0,16.0,49,0.00,,,0.00,VWS V14.01,2013-03-07 19:28:00,
2013-03-07 14:33:00,50.0,31.1,30.10,WSW,252,1.0,5.0,48,0.00,,,0.00,VWS V14.01,2013-03-07 19:33:00,
2013-03-07 14:38:00,50.2,30.8,30.10,NW,324,10.0,13.0,47,0.00,,,0.00,VWS V14.01,2013-03-07 19:38:00,
2013-03-07 14:43:00,49.9,30.5,30.11,NW,306,10.0,13.0,47,0.00,,,0.00,VWS V14.01,2013-03-07 19:43:00,
2013-03-07 14:48:00,49.9,31.0,30.11,NW,325,4.0,13.0,48,0.00,,,0.00,VWS V14.01,2013-03-07 19:48:00,
2013-03-07 14:53:00,49.9,30.5,30.10,NW,307,8.0,15.0,47,0.00,,,0.00,VWS V14.01,2013-03-07 19:53:00,
2013-03-07 14:58:00,49.9,30.5,30.10,NW,311,7.0,15.0,47,0.00,,,0.00,VWS V14.01,2013-03-07 19:58:00,
2013-03-07 15:03:00,50.3,31.4,30.10,NNW,336,7.0,10.0,48,0.00,,,0.00,VWS V14.01,2013-03-07 20:03:00,
2013-03-07 15:08:00,50.4,30.4,30.10,NNW,333,7.0,14.0,46,0.00,,,0.00,VWS V14.01,2013-03-07 20:08:00,
2013-03-07 15:13:00,50.4,30.4,30.10,WNW,292,10.0,15.0,46,0.00,,,0.00,VWS V14.01,2013-03-07 20:13:00,
2013-03-07 15:18:00,50.5,31.0,30.10,NW,311,9.0,15.0,47,0.00,,,0.00,VWS V14.01,2013-03-07 20:18:00,
2013-03-07 15:23:00,50.7,30.7,30.11,WNW,300,7.0,15.0,46,0.00,,,0.00,VWS V14.01,2013-03-07 20:23:00,
2013-03-07 15:28:00,50.6,30.6,30.11,NW,318,11.0,15.0,46,0.00,,,0.00,VWS V14.01,2013-03-07 20:28:00,
2013-03-07 15:33:00,50.3,30.9,30.11,NW,324,15.0,15.0,47,0.00,,,0.00,VWS V14.01,2013-03-07 20:33:00,
2013-03-07 15:38:00,50.0,30.6,30.11,NW,309,6.0,15.0,47,0.00,,,0.00,VWS V14.01,2013-03-07 20:38:00,
2013-03-07 15:43:00,49.7,30.3,30.11,NNW,327,5.0,15.0,47,0.00,,,0.00,VWS V14.01,2013-03-07 20:43:00,
2013-03-07 15:48:00,49.8,30.4,30.10,NW,313,7.0,15.0,47,0.00,,,0.00,VWS V14.01,2013-03-07 20:48:00,
2013-03-07 15:53:00,50.0,30.6,30.11,WNW,283,2.0,15.0,47,0.00,,,0.00,VWS V14.01,2013-03-07 20:53:00,
2013-03-07 15:58:00,50.6,30.6,30.11,North,360,5.0,15.0,46,0.00,,,0.00,VWS V14.01,2013-03-07 20:58:00,
2013-03-07 16:03:00,50.6,30.6,30.11,NW,315,10.0,10.0,46,0.00,,,0.00,VWS V14.01,2013-03-07 21:03:00,
2013-03-07 16:08:00,50.5,30.5,30.11,NNW,338,8.0,11.0,46,0.00,,,0.00,VWS V14.01,2013-03-07 21:08:00,
2013-03-07 16:13:00,50.4,30.4,30.11,NW,313,8.0,12.0,46,0.00,,,0.00,VWS V14.01,2013-03-07 21:13:00,
2013-03-07 16:18:00,51.0,31.0,30.11,NW,311,11.0,12.0,46,0.00,,,0.00,VWS V14.01,2013-03-07 21:18:00,
2013-03-07 16:23:00,50.6,30.1,30.11,NW,305,10.0,15.0,45,0.00,,,0.00,VWS V14.01,2013-03-07 21:23:00,
2013-03-07 16:28:00,50.8,30.2,30.11,NW,324,9.0,15.0,45,0.00,,,0.00,VWS V14.01,2013-03-07 21:28:00,
2013-03-07 16:33:00,50.6,30.6,30.11,NNW,331,9.0,11.0,46,0.00,,,0.00,VWS V14.01,2013-03-07 21:33:00,
2013-03-07 16:38:00,50.1,30.7,30.11,NW,304,3.0,11.0,47,0.00,,,0.00,VWS V14.01,2013-03-07 21:38:00,
2013-03-07 16:43:00,50.0,31.1,30.11,NW,315,5.0,11.0,48,0.00,,,0.00,VWS V14.01,2013-03-07 21:43:00,
2013-03-07 16:48:00,50.0,30.6,30.11,NW,319,6.0,11.0,47,0.00,,,0.00,VWS V14.01,2013-03-07 21:48:00,
2013-03-07 16:53:00,50.0,30.6,30.12,NNE,28,4.0,11.0,47,0.00,,,0.00,VWS V14.01,2013-03-07 21:53:00,
2013-03-07 16:58:00,49.8,30.4,30.12,NW,306,7.0,11.0,47,0.00,,,0.00,VWS V14.01,2013-03-07 21:58:00,
2013-03-07 17:03:00,49.5,30.6,30.12,NW,311,5.0,8.0,48,0.00,,,0.00,VWS V14.01,2013-03-07 22:03:00,
2013-03-07 17:08:00,49.2,30.4,30.12,WNW,298,7.0,12.0,48,0.00,,,0.00,VWS V14.01,2013-03-07 22:08:00,
2013-03-07 17:13:00,49.1,30.3,30.12,WNW,303,6.0,12.0,48,0.00,,,0.00,VWS V14.01,2013-03-07 22:13:00,
2013-03-07 17:18:00,49.2,30.9,30.13,NW,304,8.0,12.0,49,0.00,,,0.00,VWS V14.01,2013-03-07 22:18:00,
2013-03-07 17:23:00,49.1,30.8,30.13,NNW,333,3.0,12.0,49,0.00,,,0.00,VWS V14.01,2013-03-07 22:23:00,
2013-03-07 17:28:00,49.1,30.8,30.13,NW,311,5.0,12.0,49,0.00,,,0.00,VWS V14.01,2013-03-07 22:28:00,
2013-03-07 17:33:00,49.0,30.7,30.13,North,10,3.0,8.0,49,0.00,,,0.00,VWS V14.01,2013-03-07 22:33:00,
2013-03-07 17:38:00,48.8,30.5,30.13,ENE,61,5.0,13.0,49,0.00,,,0.00,VWS V14.01,2013-03-07 22:38:00,
2013-03-07 17:43:00,48.7,30.4,30.14,NW,319,6.0,13.0,49,0.00,,,0.00,VWS V14.01,2013-03-07 22:43:00,
2013-03-07 17:48:00,48.7,30.4,30.14,NW,315,10.0,13.0,49,0.00,,,0.00,VWS V14.01,2013-03-07 22:48:00,
2013-03-07 17:53:00,48.5,30.2,30.14,NNE,12,6.0,13.0,49,0.00,,,0.00,VWS V14.01,2013-03-07 22:53:00,
2013-03-07 17:58:00,48.2,30.5,30.15,NNE,25,4.0,13.0,50,0.00,,,0.00,VWS V14.01,2013-03-07 22:58:00,
2013-03-07 18:03:00,47.9,30.2,30.15,NW,312,10.0,10.0,50,0.00,,,0.00,VWS V14.01,2013-03-07 23:03:00,
2013-03-07 18:08:00,47.7,30.5,30.15,NNW,337,3.0,11.0,51,0.00,,,0.00,VWS V14.01,2013-03-07 23:08:00,
2013-03-07 18:13:00,47.6,30.4,30.15,NW,323,5.0,11.0,51,0.00,,,0.00,VWS V14.01,2013-03-07 23:13:00,
2013-03-07 18:18:00,47.3,30.1,30.15,NW,325,1.0,11.0,51,0.00,,,0.00,VWS V14.01,2013-03-07 23:18:00,
2013-03-07 18:23:00,47.0,29.8,30.15,ENE,76,5.0,11.0,51,0.00,,,0.00,VWS V14.01,2013-03-07 23:23:00,
2013-03-07 18:28:00,46.7,30.0,30.16,North,355,4.0,11.0,52,0.00,,,0.00,VWS V14.01,2013-03-07 23:28:00,
2013-03-07 18:33:00,46.4,29.8,30.16,NNW,331,4.0,6.0,52,0.00,,,0.00,VWS V14.01,2013-03-07 23:33:00,
2013-03-07 18:38:00,46.2,29.6,30.16,NNE,28,2.0,6.0,52,0.00,,,0.00,VWS V14.01,2013-03-07 23:38:00,
2013-03-07 18:43:00,46.0,29.4,30.16,NE,38,4.0,7.0,52,0.00,,,0.00,VWS V14.01,2013-03-07 23:43:00,
2013-03-07 18:48:00,45.9,29.3,30.17,NW,322,2.0,7.0,52,0.00,,,0.00,VWS V14.01,2013-03-07 23:48:00,
2013-03-07 18:53:00,45.6,29.5,30.17,NW,325,3.0,7.0,53,0.00,,,0.00,VWS V14.01,2013-03-07 23:53:00,
2013-03-07 18:58:00,45.5,29.4,30.17,North,355,3.0,7.0,53,0.00,,,0.00,VWS V14.01,2013-03-07 23:58:00,
2013-03-07 19:03:00,45.3,29.2,30.17,NW,315,4.0,4.0,53,0.00,,,0.00,VWS V14.01,2013-03-08 00:03:00,
2013-03-07 19:08:00,45.2,29.1,30.17,North,5,2.0,7.0,53,0.00,,,0.00,VWS V14.01,2013-03-08 00:08:00,
2013-03-07 19:13:00,45.0,28.9,30.17,NE,39,4.0,7.0,53,0.00,,,0.00,VWS V14.01,2013-03-08 00:13:00,
2013-03-07 19:18:00,44.9,29.3,30.17,NNE,26,2.0,7.0,54,0.00,,,0.00,VWS V14.01,2013-03-08 00:18:00,
2013-03-07 19:23:00,44.7,28.6,30.17,NW,326,5.0,7.0,53,0.00,,,0.00,VWS V14.01,2013-03-08 00:23:00,
2013-03-07 19:28:00,44.7,28.6,30.18,NNW,333,3.0,7.0,53,0.00,,,0.00,VWS V14.01,2013-03-08 00:28:00,
2013-03-07 19:33:00,44.6,28.5,30.18,NE,50,5.0,7.0,53,0.00,,,0.00,VWS V14.01,2013-03-08 00:33:00,
2013-03-07 19:38:00,44.5,28.5,30.18,NE,49,5.0,7.0,53,0.00,,,0.00,VWS V14.01,2013-03-08 00:38:00,
2013-03-07 19:43:00,44.4,28.4,30.18,North,349,2.0,7.0,53,0.00,,,0.00,VWS V14.01,2013-03-08 00:43:00,
2013-03-07 19:48:00,44.2,28.6,30.19,NNW,329,3.0,7.0,54,0.00,,,0.00,VWS V14.01,2013-03-08 00:48:00,
2013-03-07 19:53:00,44.1,28.5,30.19,NW,323,2.0,7.0,54,0.00,,,0.00,VWS V14.01,2013-03-08 00:53:00,
2013-03-07 19:58:00,44.0,28.4,30.19,North,5,3.0,7.0,54,0.00,,,0.00,VWS V14.01,2013-03-08 00:58:00,
2013-03-07 20:03:00,43.8,28.2,30.19,NW,307,2.0,6.0,54,0.00,,,0.00,VWS V14.01,2013-03-08 01:03:00,
2013-03-07 20:08:00,43.6,28.1,30.19,NW,313,5.0,9.0,54,0.00,,,0.00,VWS V14.01,2013-03-08 01:08:00,
2013-03-07 20:13:00,43.6,28.1,30.19,NNW,344,5.0,9.0,54,0.00,,,0.00,VWS V14.01,2013-03-08 01:13:00,
2013-03-07 20:18:00,43.5,28.0,30.19,NW,311,7.0,9.0,54,0.00,,,0.00,VWS V14.01,2013-03-08 01:18:00,
2013-03-07 20:23:00,43.5,28.0,30.20,NW,307,6.0,9.0,54,0.00,,,0.00,VWS V14.01,2013-03-08 01:23:00,
2013-03-07 20:28:00,43.3,27.8,30.20,NW,315,3.0,9.0,54,0.00,,,0.00,VWS V14.01,2013-03-08 01:28:00,
2013-03-07 20:33:00,43.2,27.7,30.20,NNW,329,3.0,7.0,54,0.00,,,0.00,VWS V14.01,2013-03-08 01:33:00,
2013-03-07 20:38:00,43.0,27.5,30.20,NNW,344,7.0,7.0,54,0.00,,,0.00,VWS V14.01,2013-03-08 01:38:00,
2013-03-07 20:43:00,42.9,27.4,30.20,NW,312,4.0,8.0,54,0.00,,,0.00,VWS V14.01,2013-03-08 01:43:00,
2013-03-07 20:48:00,42.7,27.7,30.20,NNE,15,2.0,8.0,55,0.00,,,0.00,VWS V14.01,2013-03-08 01:48:00,
2013-03-07 20:53:00,42.5,27.5,30.21,NW,319,5.0,8.0,55,0.00,,,0.00,VWS V14.01,2013-03-08 01:53:00,
2013-03-07 20:58:00,42.4,27.4,30.21,NW,324,3.0,12.0,55,0.00,,,0.00,VWS V14.01,2013-03-08 01:58:00,
2013-03-07 21:03:00,42.3,27.3,30.21,NW,304,7.0,10.0,55,0.00,,,0.00,VWS V14.01,2013-03-08 02:03:00,
2013-03-07 21:08:00,42.2,27.2,30.21,NW,325,4.0,10.0,55,0.00,,,0.00,VWS V14.01,2013-03-08 02:08:00,
2013-03-07 21:13:00,42.0,27.5,30.21,NW,325,4.0,10.0,56,0.00,,,0.00,VWS V14.01,2013-03-08 02:13:00,
2013-03-07 21:18:00,41.7,27.2,30.22,NW,311,4.0,10.0,56,0.00,,,0.00,VWS V14.01,2013-03-08 02:18:00,
2013-03-07 21:23:00,41.6,27.1,30.22,WNW,288,4.0,10.0,56,0.00,,,0.00,VWS V14.01,2013-03-08 02:23:00,
2013-03-07 21:28:00,41.4,27.3,30.22,NW,321,5.0,10.0,57,0.00,,,0.00,VWS V14.01,2013-03-08 02:28:00,
2013-03-07 21:33:00,41.2,27.6,30.22,NW,309,3.0,4.0,58,0.00,,,0.00,VWS V14.01,2013-03-08 02:33:00,
2013-03-07 21:38:00,40.9,27.3,30.22,NW,306,4.0,4.0,58,0.00,,,0.00,VWS V14.01,2013-03-08 02:38:00,
2013-03-07 21:43:00,40.7,27.5,30.22,WNW,299,4.0,6.0,59,0.00,,,0.00,VWS V14.01,2013-03-08 02:43:00,
2013-03-07 21:48:00,40.5,27.7,30.22,NW,321,2.0,6.0,60,0.00,,,0.00,VWS V14.01,2013-03-08 02:48:00,
2013-03-07 21:53:00,40.4,27.6,30.22,NW,317,2.0,6.0,60,0.00,,,0.00,VWS V14.01,2013-03-08 02:53:00,
2013-03-07 21:58:00,40.1,27.4,30.22,WNW,303,4.0,6.0,60,0.00,,,0.00,VWS V14.01,2013-03-08 02:58:00,
2013-03-07 22:03:00,40.0,27.6,30.22,NW,313,4.0,5.0,61,0.00,,,0.00,VWS V14.01,2013-03-08 03:03:00,
2013-03-07 22:08:00,39.8,27.5,30.22,NW,307,3.0,5.0,61,0.00,,,0.00,VWS V14.01,2013-03-08 03:08:00,
2013-03-07 22:13:00,39.6,27.3,30.22,NW,317,3.0,6.0,61,0.00,,,0.00,VWS V14.01,2013-03-08 03:13:00,
2013-03-07 22:18:00,39.4,27.5,30.22,NW,310,5.0,6.0,62,0.00,,,0.00,VWS V14.01,2013-03-08 03:18:00,
2013-03-07 22:23:00,39.2,27.3,30.22,NW,311,2.0,6.0,62,0.00,,,0.00,VWS V14.01,2013-03-08 03:23:00,
2013-03-07 22:28:00,39.0,27.5,30.22,NW,314,2.0,6.0,63,0.00,,,0.00,VWS V14.01,2013-03-08 03:28:00,
2013-03-07 22:33:00,38.8,27.3,30.22,NNW,327,3.0,3.0,63,0.00,,,0.00,VWS V14.01,2013-03-08 03:33:00,
2013-03-07 22:38:00,38.7,27.6,30.22,NW,321,1.0,3.0,64,0.00,,,0.00,VWS V14.01,2013-03-08 03:38:00,
2013-03-07 22:43:00,38.4,27.3,30.22,NW,313,2.0,3.0,64,0.00,,,0.00,VWS V14.01,2013-03-08 03:43:00,
2013-03-07 22:48:00,38.3,27.6,30.23,NW,311,2.0,3.0,65,0.00,,,0.00,VWS V14.01,2013-03-08 03:48:00,
2013-03-07 22:53:00,38.1,27.4,30.23,NW,321,1.0,3.0,65,0.00,,,0.00,VWS V14.01,2013-03-08 03:53:00,
2013-03-07 22:58:00,38.0,27.3,30.22,NW,310,1.0,3.0,65,0.00,,,0.00,VWS V14.01,2013-03-08 03:58:00,
2013-03-07 23:03:00,37.8,27.5,30.22,WNW,296,1.0,2.0,66,0.00,,,0.00,VWS V14.01,2013-03-08 04:03:00,
2013-03-07 23:08:00,37.6,27.3,30.22,WNW,287,0.0,2.0,66,0.00,,,0.00,VWS V14.01,2013-03-08 04:08:00,
2013-03-07 23:13:00,37.4,27.1,30.22,WNW,300,1.0,2.0,66,0.00,,,0.00,VWS V14.01,2013-03-08 04:13:00,
2013-03-07 23:18:00,37.2,27.3,30.23,NW,311,2.0,2.0,67,0.00,,,0.00,VWS V14.01,2013-03-08 04:18:00,
2013-03-07 23:23:00,37.1,27.2,30.22,NW,311,4.0,4.0,67,0.00,,,0.00,VWS V14.01,2013-03-08 04:23:00,
2013-03-07 23:28:00,37.0,27.1,30.22,NW,318,3.0,4.0,67,0.00,,,0.00,VWS V14.01,2013-03-08 04:28:00,
2013-03-07 23:33:00,36.8,27.2,30.22,NW,323,2.0,3.0,68,0.00,,,0.00,VWS V14.01,2013-03-08 04:33:00,
2013-03-07 23:39:00,36.6,27.0,30.22,NW,311,1.0,3.0,68,0.00,,,0.00,VWS V14.01,2013-03-08 04:39:00,
2013-03-07 23:44:00,36.6,27.0,30.22,NW,306,3.0,3.0,68,0.00,,,0.00,VWS V14.01,2013-03-08 04:44:00,
2013-03-07 23:48:00,36.6,27.0,30.22,WNW,293,1.0,4.0,68,0.00,,,0.00,VWS V14.01,2013-03-08 04:48:00,
2013-03-07 23:53:00,36.5,27.0,30.22,West,279,1.0,4.0,68,0.00,,,0.00,VWS V14.01,2013-03-08 04:53:00,
2013-03-07 23:58:00,36.3,26.8,30.22,West,279,1.0,4.0,68,0.00,,,0.00,VWS V14.01,2013-03-08 04:58:00,